STARLINK-5310 (55272 NORAD) Tracking and Keplerian Element Data

This shows tracking and keplerian element data for the satellite.

Feedback or suggestion? Click here.




ElementValue
Catalog55272
NameSTARLINK-5310
Epoch Orbit1704
Epoch Day127.05731525
Epoch Year2023
RAAN140.8936
Inclination69.9984
Eccentricity0.0003275
Argument of Perigee267.6818
Mean Anonmoly92.3966
Mean Motion14.99138071
Decay Rate-2.73E-06
L11 55272U 23010D 23127.05731525 -.00000273 00000+0 -14684-4 0 9990
L22 55272 69.9984 140.8936 0003275 267.6818 92.3966 14.99138071 17044



Live tracking and technical data element details for STARLINK-5310 (NORAD 55272). STARLINK-5310 can be tracked NOW for your location showing map with azimuth and elevation plus other details from your city location.







IsCatalogInMostPopularTable: catalog: 55272, numindb: 1
Update: records affected: 1



GetName: 55272 STARLINK-5310

Hit Count: updated at: Mon, 05 Jun 2023 20:12:31 GMT